Location: Cosy Dell
(34.2789°N, 117.4537°W)
Time: 12:07:31
(UTC+00:00)

Lacrosse 5 - Pass Details

Date: 14 July 2020
Orbit: 717 x 720 km, 57.0° (Epoch: 04 August)

Event Time Altitude Azimuth Distance (km) Brightness Sun altitude
Exits shadow 08:26:23 23° 320° (NW) 1,511 3.8 -33.7°
Maximum altitude 08:26:27 23° 322° (NW) 1,511 3.8 -33.7°
Drops below altitude 10° 08:30:27 10° 14° (NNE) 2,203 5.2 -33.5°
Sets 08:33:18 0° 29° (NNE) 3,126 6.1 -33.4°
